TimeMDT,TemperatureF,Dew PointF,Humidity,Sea Level PressureIn,VisibilityMPH,Wind Direction,Wind SpeedMPH,Gust SpeedMPH,PrecipitationIn,Events,Conditions,WindDirDegrees,DateUTC
12:15 AM,62.8,57.0,81,30.22,10.0,ESE,4.6,-,N/A,,Clear,120,2013-08-10 06:15:00
12:35 AM,62.2,57.2,84,30.22,10.0,Calm,Calm,-,N/A,,Clear,0,2013-08-10 06:35:00
12:55 AM,62.1,57.2,84,30.22,10.0,SSE,3.5,-,N/A,,Clear,150,2013-08-10 06:55:00
1:15 AM,61.3,56.8,85,30.21,10.0,Calm,Calm,-,N/A,,Clear,0,2013-08-10 07:15:00
1:35 AM,61.0,56.7,86,30.21,10.0,Calm,Calm,-,N/A,,Clear,0,2013-08-10 07:35:00
1:55 AM,60.3,56.7,88,30.21,10.0,Calm,Calm,-,N/A,,Clear,0,2013-08-10 07:55:00
2:15 AM,59.5,55.9,88,30.21,10.0,Calm,Calm,-,N/A,,Clear,0,2013-08-10 08:15:00
2:35 AM,58.5,55.8,91,30.21,10.0,Calm,Calm,-,N/A,,Clear,0,2013-08-10 08:35:00
2:55 AM,60.3,56.1,86,30.21,10.0,Calm,Calm,-,N/A,,Clear,0,2013-08-10 08:55:00
3:15 AM,58.5,55.6,90,30.20,10.0,Calm,Calm,-,N/A,,Clear,0,2013-08-10 09:15:00
3:35 AM,57.6,55.4,92,30.20,10.0,Calm,Calm,-,N/A,,Clear,0,2013-08-10 09:35:00
3:55 AM,56.7,54.3,92,30.20,10.0,Calm,Calm,-,N/A,,Clear,0,2013-08-10 09:55:00
4:15 AM,57.2,55.0,92,30.20,10.0,Calm,Calm,-,N/A,,Clear,0,2013-08-10 10:15:00
4:35 AM,56.3,54.5,94,30.20,10.0,Calm,Calm,-,N/A,,Clear,0,2013-08-10 10:35:00
4:55 AM,55.4,53.6,94,30.19,10.0,Calm,Calm,-,N/A,,Clear,0,2013-08-10 10:55:00
5:15 AM,55.4,53.4,93,30.19,10.0,Calm,Calm,-,N/A,,Clear,0,2013-08-10 11:15:00
5:35 AM,54.9,53.1,94,30.19,10.0,Calm,Calm,-,N/A,,Clear,0,2013-08-10 11:35:00
5:55 AM,55.4,53.6,94,30.20,10.0,WSW,3.5,-,N/A,,Clear,250,2013-08-10 11:55:00
6:15 AM,54.5,52.3,92,30.21,10.0,Calm,Calm,-,N/A,,Clear,0,2013-08-10 12:15:00
6:35 AM,55.9,54.1,94,30.21,10.0,Calm,Calm,-,N/A,,Clear,0,2013-08-10 12:35:00
6:55 AM,58.3,56.3,93,30.21,10.0,Calm,Calm,-,N/A,,Clear,0,2013-08-10 12:55:00
7:15 AM,59.9,57.0,90,30.21,10.0,Calm,Calm,-,N/A,,Clear,0,2013-08-10 13:15:00
7:35 AM,62.1,58.5,88,30.21,10.0,Calm,Calm,-,N/A,,Clear,0,2013-08-10 13:35:00
7:55 AM,64.4,59.7,85,30.21,10.0,SW,3.5,-,N/A,,Clear,220,2013-08-10 13:55:00
8:15 AM,67.5,59.7,76,30.21,10.0,SW,3.5,-,N/A,,Clear,230,2013-08-10 14:15:00
8:35 AM,69.8,59.2,69,30.21,10.0,SW,8.1,-,N/A,,Clear,220,2013-08-10 14:35:00
8:55 AM,71.1,59.0,66,30.21,10.0,SSW,6.9,-,N/A,,Clear,210,2013-08-10 14:55:00
9:15 AM,72.7,58.5,61,30.21,10.0,SSW,6.9,-,N/A,,Clear,210,2013-08-10 15:15:00
9:35 AM,75.4,57.0,53,30.21,10.0,South,10.4,-,N/A,,Clear,180,2013-08-10 15:35:00
9:55 AM,76.3,55.8,49,30.20,10.0,SSW,6.9,-,N/A,,Clear,200,2013-08-10 15:55:00
10:15 AM,77.2,54.1,45,30.21,10.0,South,15.0,21.9,N/A,,Clear,190,2013-08-10 16:15:00
10:35 AM,77.9,54.1,44,30.20,10.0,South,11.5,18.4,N/A,,Clear,190,2013-08-10 16:35:00
10:55 AM,79.7,53.2,40,30.20,10.0,South,17.3,21.9,N/A,,Clear,180,2013-08-10 16:55:00
11:15 AM,79.9,53.6,40,30.20,10.0,South,11.5,19.6,N/A,,Clear,180,2013-08-10 17:15:00
11:35 AM,80.2,53.2,39,30.19,10.0,South,12.7,21.9,N/A,,Clear,190,2013-08-10 17:35:00
11:55 AM,81.1,51.8,36,30.19,10.0,South,15.0,21.9,N/A,,Clear,190,2013-08-10 17:55:00
12:15 PM,81.9,51.1,34,30.18,10.0,South,16.1,-,N/A,,Clear,170,2013-08-10 18:15:00
12:35 PM,82.0,50.0,33,30.18,10.0,South,13.8,19.6,N/A,,Clear,190,2013-08-10 18:35:00
12:55 PM,82.4,50.5,33,30.17,10.0,SSW,13.8,20.7,N/A,,Clear,200,2013-08-10 18:55:00
1:15 PM,82.6,50.7,33,30.17,10.0,SSE,13.8,20.7,N/A,,Clear,160,2013-08-10 19:15:00
1:35 PM,84.2,50.9,32,30.16,10.0,South,17.3,21.9,N/A,,Clear,180,2013-08-10 19:35:00
1:55 PM,84.6,51.4,32,30.15,10.0,South,16.1,20.7,N/A,,Clear,180,2013-08-10 19:55:00
2:15 PM,84.2,51.3,32,30.14,10.0,South,16.1,20.7,N/A,,Clear,170,2013-08-10 20:15:00
2:35 PM,84.9,51.3,31,30.14,10.0,South,16.1,23.0,N/A,,Clear,170,2013-08-10 20:35:00
2:55 PM,85.6,51.3,30,30.13,10.0,SSE,12.7,19.6,N/A,,Clear,160,2013-08-10 20:55:00
3:15 PM,85.3,51.1,31,30.13,10.0,South,16.1,-,N/A,,Clear,170,2013-08-10 21:15:00
3:35 PM,85.1,50.4,30,30.13,10.0,South,13.8,19.6,N/A,,Clear,170,2013-08-10 21:35:00
3:55 PM,85.1,50.9,31,30.11,10.0,SSE,15.0,20.7,N/A,,Clear,160,2013-08-10 21:55:00
4:15 PM,85.1,50.7,30,30.11,10.0,South,12.7,19.6,N/A,,Clear,180,2013-08-10 22:15:00
4:35 PM,85.1,52.2,32,30.11,10.0,South,13.8,19.6,N/A,,Clear,170,2013-08-10 22:35:00
4:55 PM,84.6,51.6,32,30.10,10.0,South,16.1,-,N/A,,Clear,170,2013-08-10 22:55:00
5:15 PM,84.0,52.0,33,30.10,10.0,SSE,12.7,-,N/A,,Clear,160,2013-08-10 23:15:00
5:35 PM,83.7,53.8,36,30.09,10.0,South,12.7,-,N/A,,Clear,180,2013-08-10 23:35:00
5:55 PM,82.4,55.4,39,30.08,10.0,SSE,12.7,18.4,N/A,,Clear,160,2013-08-10 23:55:00
6:15 PM,81.5,56.1,42,30.08,10.0,South,11.5,16.1,N/A,,Clear,170,2013-08-11 00:15:00
6:35 PM,79.9,55.9,44,30.08,10.0,South,9.2,-,N/A,,Clear,170,2013-08-11 00:35:00
6:55 PM,80.6,57.2,45,30.08,10.0,South,8.1,-,N/A,,Clear,170,2013-08-11 00:55:00
7:15 PM,78.1,57.6,49,30.09,10.0,South,6.9,-,N/A,,Clear,170,2013-08-11 01:15:00
7:35 PM,75.6,58.5,55,30.09,10.0,South,5.8,-,N/A,,Clear,170,2013-08-11 01:35:00
7:55 PM,73.4,59.2,61,30.09,10.0,South,3.5,-,N/A,,Clear,170,2013-08-11 01:55:00
8:15 PM,72.0,59.4,64,30.09,10.0,SSE,4.6,-,N/A,,Clear,150,2013-08-11 02:15:00
8:35 PM,70.7,59.2,67,30.10,7.0,Calm,Calm,-,N/A,,Clear,0,2013-08-11 02:35:00
8:55 PM,70.2,59.4,69,30.11,10.0,Calm,Calm,-,N/A,,Clear,0,2013-08-11 02:55:00
9:15 PM,70.3,59.2,68,30.13,10.0,Calm,Calm,-,N/A,,Clear,0,2013-08-11 03:15:00
9:35 PM,70.3,59.2,68,30.13,10.0,Calm,Calm,-,N/A,,Clear,0,2013-08-11 03:35:00
9:55 PM,70.2,59.5,69,30.13,10.0,Calm,Calm,-,N/A,,Clear,0,2013-08-11 03:55:00
10:15 PM,70.7,59.9,69,30.15,10.0,WNW,10.4,-,N/A,,Clear,290,2013-08-11 04:15:00
10:35 PM,70.9,59.9,68,30.15,10.0,West,6.9,-,N/A,,Clear,260,2013-08-11 04:35:00
10:55 PM,71.1,59.7,67,30.12,10.0,SSW,6.9,-,N/A,,Clear,210,2013-08-11 04:55:00
11:15 PM,69.4,60.1,72,30.12,10.0,SSW,4.6,-,N/A,,Clear,200,2013-08-11 05:15:00
11:35 PM,68.9,60.1,73,30.12,10.0,SSW,5.8,-,N/A,,Clear,200,2013-08-11 05:35:00
11:55 PM,68.0,60.3,76,30.14,10.0,WSW,4.6,-,N/A,,Clear,240,2013-08-11 05:55:00